Vorticity
nan nan nan nan nan nan nan nan nan nan nan nan nan nan nan nan nan nan nan nan nan nan nan nan nan nan nan nan nan nan nan nan nan nan nan nan nan nan nan nan nan nan nan
nan 7 8 7 7 7 7 7 7 7 7 7 7 8 7 7 8 7 5 5 6 8 6 6 6 6 6 6 5 4 5 5 6 6 5 5 6 5 5 5 5 5 nan
nan 6 7 8 7 8 7 7 7 7 7 8 8 7 8 7 7 7 6 5 3 6 9 7 6 6 6 6 6 5 6 6 5 5 5 5 5 5 5 5 5 5 nan
nan 5 5 7 7 7 8 8 7 7 7 7 7 8 8 8 8 7 7 6 6 4 5 8 8 6 6 5 6 6 7 7 6 4 5 5 5 5 4 4 4 5 nan
nan 5 7 8 7 6 7 8 7 7 7 7 8 8 8 9 7 7 8 7 7 6 4 5 5 7 7 6 5 6 6 7 7 5 6 5 5 6 6 5 4 4 nan
nan 6 6 8 7 7 7 8 7 7 8 8 9 8 8 8 8 8 8 7 7 7 7 5 3 3 5 6 6 5 6 6 7 8 7 5 5 6 6 5 5 5 nan
nan 6 7 9 7 7 8 7 8 7 7 7 6 8 8 10 8 8 8 8 7 7 7 5 5 6 5 4 5 7 8 9 9 8 7 6 6 6 6 6 5 6 nan
nan 7 6 9 8 8 10 8 4 4 9 7 4 8 9 8 12 10 7 9 7 7 8 7 7 7 5 5 5 9 9 9 10 9 8 7 6 7 6 6 6 5 nan
nan 8 7 6 7 7 10 10 8 3 5 9 6 3 8 11 11 12 9 8 8 6 8 9 7 7 7 8 9 7 6 7 8 8 8 7 7 7 6 6 7 7 nan
nan 10 9 7 7 10 10 7 7 6 5 7 7 7 4 11 8 8 13 11 10 8 7 7 8 8 7 5 6 8 7 6 6 6 6 6 7 7 8 8 7 8 nan
nan 11 10 9 7 8 9 8 8 7 4 6 5 10 9 6 8 10 12 12 10 10 10 8 8 8 8 7 7 7 4 5 5 5 6 7 7 8 9 9 9 9 nan
nan 14 11 9 9 7 9 8 8 8 6 6 6 5 9 8 9 9 8 12 12 13 10 9 8 8 8 7 7 5 6 4 5 6 7 7 8 9 9 9 10 9 nan
nan 12 11 8 8 8 7 8 9 9 8 7 6 5 6 6 9 11 10 10 11 11 13 12 10 9 8 9 7 6 4 3 6 6 6 8 8 9 9 9 9 8 nan
nan 8 10 12 11 9 9 7 7 9 9 9 8 5 8 10 8 10 13 8 9 10 10 11 11 10 9 9 6 7 5 5 4 5 7 7 8 8 8 9 9 9 nan
nan 13 11 11 11 13 13 10 9 10 9 10 10 9 9 9 10 9 9 11 11 12 9 8 10 11 9 9 4 3 7 7 5 6 6 7 8 8 9 9 9 9 nan
nan 13 13 12 11 12 13 12 11 14 10 9 14 11 7 11 10 9 10 9 10 12 10 10 10 10 10 5 6 8 7 9 11 7 7 7 8 9 10 10 9 9 nan
nan 14 16 14 13 11 10 10 10 12 12 10 10 10 11 10 7 9 9 10 11 9 11 8 9 8 8 8 8 7 9 9 11 9 8 7 9 11 10 9 10 10 nan
nan 16 15 13 13 12 10 11 11 11 13 11 12 11 8 6 9 9 8 10 8 10 11 9 8 9 9 8 8 7 8 9 8 7 7 10 11 11 11 11 10 10 nan
nan 15 14 15 15 14 14 14 13 13 13 13 12 10 8 9 8 9 9 8 8 8 8 8 8 7 6 9 10 10 10 10 9 10 11 10 11 12 10 9 9 8 nan
nan 12 14 15 17 18 15 15 14 12 10 10 10 11 10 9 11 8 7 8 9 8 8 7 7 8 8 9 9 9 9 9 9 12 13 14 15 14 12 11 11 11 nan
nan 12 11 11 13 14 17 15 11 11 8 8 9 9 10 13 9 5 7 8 8 8 8 8 9 8 8 8 7 8 10 8 10 11 14 13 12 12 13 15 13 11 nan
nan 8 10 12 11 14 18 12 11 8 9 9 7 6 9 9 9 12 12 7 3 3 5 7 7 7 7 8 11 8 7 8 11 11 8 7 9 9 11 12 8 9 nan
nan 11 10 10 11 14 13 10 10 8 9 9 10 9 9 8 7 8 10 12 11 10 6 7 7 8 9 8 8 11 9 9 8 7 6 9 10 11 11 10 7 8 nan
nan 10 9 11 12 13 13 7 4 8 10 11 10 11 10 10 9 8 8 9 9 11 12 8 8 7 8 8 9 11 9 9 9 10 10 10 10 10 10 9 12 12 nan
nan 9 10 10 12 11 8 7 8 10 9 9 10 9 8 7 8 8 8 8 10 10 10 6 8 11 10 9 9 10 12 11 10 11 15 14 11 10 13 13 18 17 nan
nan nan nan nan nan nan nan nan nan nan nan nan nan nan nan nan nan nan nan nan nan nan nan nan nan nan nan nan nan nan nan nan nan nan nan nan nan nan nan nan nan nan nan
CAPE
268 264 234 191 153 90 8 0 0 0 0 0 0 0 0 0 0 0 7 0 0 0 0 0 0 0 0 0 0 0 0 0 0 0 1 0 0 0 0 1 1 0 0
200 236 219 200 167 139 20 0 0 0 0 0 0 0 0 0 0 0 1 0 0 0 0 0 0 0 0 0 0 0 0 0 0 0 0 0 0 1 1 1 1 0 0
127 195 279 272 224 155 41 0 0 0 0 0 0 0 0 0 0 0 0 0 0 0 0 0 0 0 0 0 0 0 0 0 0 0 0 0 0 0 0 1 1 1 1
73 149 233 306 290 146 23 0 0 0 0 0 0 0 0 0 0 0 0 0 0 0 0 0 0 0 0 0 0 0 0 0 0 0 0 0 0 0 0 1 1 1 1
84 65 135 188 187 126 0 0 0 0 0 0 0 0 0 0 0 0 0 0 0 0 0 0 0 0 0 0 0 0 0 0 0 0 0 0 0 0 1 2 2 2 2
173 89 49 81 117 83 0 0 0 0 0 0 0 0 0 0 0 0 0 0 0 0 0 0 0 0 0 0 0 0 0 0 0 0 0 0 0 0 0 5 7 8 9
355 170 67 48 79 48 0 0 0 0 0 0 0 0 0 0 0 0 0 0 0 0 0 0 0 0 0 0 0 0 0 0 0 0 0 0 0 0 2 5 9 11 14
566 320 156 100 46 16 0 0 0 0 0 0 0 0 0 0 0 0 0 0 0 0 0 0 0 0 0 0 0 0 0 0 0 0 0 0 0 4 7 8 13 18 23
621 501 263 201 91 11 11 0 0 0 0 0 0 0 0 0 0 0 0 0 0 0 0 0 0 0 0 0 0 0 0 0 0 0 0 0 2 6 11 15 15 21 24
670 658 352 199 64 0 0 0 0 0 0 0 0 0 0 0 0 0 0 0 0 0 0 0 0 0 0 0 0 0 0 0 0 0 0 0 2 7 10 13 18 23 25
371 474 274 204 77 1 0 0 0 0 0 0 0 0 0 0 0 0 0 0 0 0 0 0 0 0 0 0 0 0 0 0 0 0 0 0 4 12 17 17 20 19 23
248 239 189 229 78 29 5 1 0 0 0 0 0 0 0 0 0 0 0 0 0 0 0 0 0 0 0 0 0 0 0 0 0 0 0 1 7 14 15 16 20 24 23
246 105 193 161 140 18 9 3 0 0 0 0 0 0 0 0 0 0 0 0 0 0 0 0 0 0 0 0 0 0 0 0 0 0 0 3 6 5 7 10 14 19 21
499 257 109 136 114 41 3 2 0 0 0 0 0 0 0 0 0 0 0 0 0 0 0 0 0 0 0 0 0 0 0 0 0 0 0 0 1 0 1 5 9 12 14
405 475 325 188 109 9 4 2 5 1 0 0 0 0 0 0 0 0 0 0 0 0 0 0 0 0 0 0 0 0 0 0 0 0 0 0 0 0 1 4 6 10 11
229 200 277 182 22 0 0 0 1 1 0 0 0 0 0 0 0 0 0 0 0 0 0 0 0 0 0 0 0 0 0 0 0 0 0 0 0 2 6 10 13 18 22
44 74 66 32 10 0 0 0 0 0 0 0 0 0 0 0 0 0 0 0 0 0 0 0 0 0 0 0 0 0 0 0 0 0 0 0 1 4 11 14 14 15 19
0 0 0 0 0 0 0 0 0 0 0 0 0 0 0 0 0 0 0 0 0 0 0 0 0 0 0 0 0 0 0 0 0 0 0 0 2 6 6 5 7 12 18
0 0 0 0 0 0 0 0 0 0 0 0 0 0 0 0 0 0 0 0 0 0 0 0 2 0 0 0 0 1 0 0 0 0 0 0 0 1 1 3 6 11 11
0 0 0 0 0 0 0 0 0 0 0 0 0 0 2 0 0 0 0 0 2 5 4 2 1 2 3 0 1 0 0 0 0 0 0 0 0 0 1 2 2 1 0
0 0 0 0 0 0 0 0 0 0 0 3 1 0 0 0 2 2 4 3 3 2 3 8 7 7 4 0 0 0 0 0 0 0 0 0 0 0 0 0 0 0 0
0 0 0 0 1 1 4 2 0 1 0 1 1 1 0 4 6 12 14 5 1 6 10 12 11 4 0 0 1 1 2 3 2 0 0 0 0 0 0 0 0 0 0
1 2 2 2 3 7 11 6 4 2 1 0 1 1 5 8 2 0 0 2 7 13 16 6 5 1 1 1 6 8 6 9 9 2 6 4 0 0 0 0 0 0 0
2 2 0 0 1 11 13 9 5 0 1 1 2 2 2 3 3 2 1 0 0 0 0 0 1 3 4 3 7 20 17 11 7 2 2 13 0 0 0 0 0 0 0
0 0 0 1 0 1 17 14 3 2 0 0 1 1 0 0 0 0 0 1 0 0 1 0 0 0 2 5 6 6 4 16 8 1 0 2 0 1 0 0 0 0 0
1 2 0 0 11 5 5 0 0 0 0 0 0 0 0 0 0 0 2 4 4 1 0 0 1 0 0 0 0 0 3 9 6 4 0 0 1 2 3 0 0 0 0